Temp
25 25 23 23 24 24 25 25 25 25 24 24 25 25 25 25 25 24 24 24 24 22 20 20 19 19 19 18 18 18 16 16 15 15 15 14 14 13 13 12 12 11 11 11
25 23 23 24 24 24 24 24 24 25 24 24 25 25 24 24 24 23 23 23 21 20 19 18 17 17 17 17 16 16 15 14 14 14 13 13 12 12 12 11 11 10 10 10
22 22 23 23 23 23 24 23 22 22 24 24 24 24 23 23 22 22 21 21 20 19 18 17 16 15 15 15 15 15 14 13 13 12 12 11 12 12 11 12 11 10 10 9
22 22 22 23 23 22 22 22 21 22 22 22 25 22 23 23 22 21 20 20 19 19 18 17 16 14 14 14 14 13 12 12 12 12 13 12 11 10 10 11 9 9 8 8
22 22 22 22 21 21 21 21 21 22 22 22 24 23 22 23 21 20 19 19 18 17 17 16 15 13 12 12 12 12 12 11 12 11 11 9 9 9 9 9 8 8 7 7
22 22 21 21 21 21 22 22 22 22 22 20 23 22 19 21 21 20 19 18 18 17 16 15 14 13 12 12 11 11 12 11 11 10 9 9 9 8 8 7 7 7 7 6
22 21 21 21 21 22 22 22 19 19 19 19 22 21 20 21 20 20 19 18 17 16 16 16 15 14 13 12 12 12 11 11 11 11 10 9 8 7 7 6 6 6 5 4
21 19 21 21 20 20 21 21 18 17 17 19 22 21 19 20 19 18 18 17 17 16 15 15 14 13 13 12 12 12 11 10 10 10 9 8 7 7 6 5 5 4 3 3
20 19 20 20 20 20 20 18 20 17 16 16 20 20 20 20 19 18 18 17 17 16 15 15 14 14 13 12 12 12 11 10 10 9 8 7 6 5 5 4 3 3 3 2
19 19 20 20 20 20 20 20 18 18 15 15 19 19 16 18 19 19 18 18 17 16 16 14 14 14 13 12 11 11 10 9 9 8 7 7 6 5 4 3 3 3 2 2
19 19 19 20 19 19 20 20 19 19 17 15 15 18 20 19 19 18 17 17 16 16 15 14 13 12 12 11 10 10 9 8 8 6 6 5 4 4 4 3 3 2 1 1
17 17 16 19 19 19 19 19 19 15 15 15 14 15 20 19 17 17 16 16 15 14 13 12 11 11 10 9 9 8 8 7 6 5 4 4 4 3 3 2 2 1 -1 -1
17 17 16 18 18 19 19 19 18 16 13 13 12 15 19 15 17 17 16 15 13 13 12 11 10 9 9 8 8 7 6 6 5 5 4 3 3 2 2 1 0 -0 -1 -1
14 18 16 15 17 18 17 18 18 18 14 14 14 16 17 17 16 16 15 14 13 12 11 10 9 8 8 7 6 7 6 6 5 4 4 3 2 2 1 0 -0 -1 -1 -1
17 15 15 16 17 17 17 17 18 17 17 14 15 16 17 17 16 13 12 12 12 10 10 8 7 7 7 6 6 6 6 6 5 4 3 3 3 1 1 0 -1 -1 -2 -2
15 12 10 12 17 17 15 16 17 17 18 17 17 16 17 14 13 12 11 10 10 9 8 7 7 6 7 6 6 6 5 5 5 3 3 3 1 1 0 -1 -1 -2 -2 -2
10 10 11 12 12 11 11 13 17 17 17 16 14 16 15 13 12 12 10 9 8 7 7 6 6 7 6 5 5 5 5 5 5 4 4 2 0 -0 -0 -2 -2 -2 -2 -2
6 8 9 9 8 11 16 17 17 16 17 17 17 15 13 11 11 11 8 7 7 6 6 6 6 6 5 5 5 4 4 3 3 3 4 1 1 -0 -1 -1 -2 -3 -2 -2
12 10 7 9 11 13 14 15 14 13 13 15 14 12 11 10 10 9 7 6 6 6 6 6 6 5 5 4 4 3 2 2 3 3 2 1 -1 -1 -1 -2 -2 -3 -2 -3
11 8 10 8 8 10 14 16 14 14 11 12 11 9 8 9 7 8 7 6 6 6 6 6 5 5 4 3 3 2 2 1 1 0 0 -1 -2 -2 -2 -2 -3 -2 -3 -3
7 8 9 9 8 10 14 14 13 11 10 9 8 8 7 8 6 6 6 6 6 6 6 5 5 4 3 2 2 1 1 1 0 -1 -2 -2 -3 -3 -2 -2 -2 -3 -3 -3
9 8 7 8 8 9 13 13 10 10 9 8 7 7 7 6 6 7 7 6 6 6 5 5 4 3 3 2 2 1 0 -0 -1 -2 -3 -3 -3 -2 -2 -2 -3 -3 -3 -4
13 12 12 11 11 13 13 11 10 9 8 7 6 6 6 6 6 6 6 6 6 5 5 4 3 3 2 2 1 0 -0 -1 -2 -3 -3 -3 -2 -3 -3 -3 -3 -4 -4 -5
15 15 11 11 13 14 13 11 8 7 7 7 6 6 6 6 6 6 6 6 5 5 4 3 2 2 2 1 0 -0 -1 -2 -3 -3 -4 -4 -3 -3 -3 -3 -4 -4 -5 -5
12 14 13 12 13 13 10 8 7 6 7 6 6 6 6 6 6 6 5 5 4 4 3 2 2 2 1 0 -0 -2 -3 -3 -4 -4 -5 -4 -4 -4 -4 -4 -5 -5 -6 -6
12 12 11 10 12 10 9 7 6 6 6 6 6 6 6 6 5 5 4 3 3 2 2 1 1 0 -0 -1 -2 -3 -4 -4 -4 -5 -5 -5 -5 -5 -5 -5 -5 -6 -7 -7
Height
1498 1497 1504 1502 1501 1500 1498 1496 1496 1496 1502 1506 1503 1503 1504 1510 1510 1512 1513 1515 1519 1523 1527 1528 1532 1536 1539 1542 1544 1544 1544 1549 1553 1553 1554 1555 1554 1554 1554 1555 1553 1552 1551 1549
1498 1504 1505 1502 1501 1503 1501 1502 1501 1498 1503 1508 1501 1503 1506 1514 1517 1517 1519 1522 1525 1528 1532 1535 1538 1540 1542 1545 1544 1545 1546 1550 1552 1551 1551 1553 1553 1554 1554 1554 1551 1550 1547 1546
1505 1508 1507 1506 1505 1507 1502 1508 1513 1514 1506 1504 1505 1506 1509 1517 1523 1525 1524 1526 1530 1534 1538 1540 1542 1544 1544 1545 1546 1546 1547 1548 1549 1551 1551 1552 1552 1551 1549 1548 1548 1545 1542 1540
1507 1510 1509 1507 1509 1513 1512 1514 1516 1515 1515 1516 1499 1521 1510 1515 1523 1527 1530 1533 1537 1540 1542 1544 1546 1548 1547 1546 1547 1548 1549 1549 1550 1551 1551 1549 1547 1545 1544 1541 1540 1537 1536 1537
1513 1511 1511 1511 1518 1517 1516 1516 1515 1514 1514 1511 1503 1513 1507 1510 1521 1528 1534 1538 1541 1544 1545 1547 1549 1550 1549 1549 1550 1551 1551 1551 1550 1548 1547 1545 1544 1541 1539 1537 1536 1535 1533 1531
1511 1514 1516 1517 1517 1517 1515 1512 1510 1509 1510 1526 1506 1509 1528 1516 1522 1530 1537 1541 1543 1546 1549 1551 1552 1551 1551 1551 1552 1552 1552 1551 1548 1546 1545 1543 1540 1538 1537 1536 1533 1530 1529 1527
1510 1515 1517 1519 1514 1513 1510 1510 1525 1532 1527 1532 1507 1515 1521 1520 1525 1529 1536 1541 1546 1549 1550 1551 1551 1551 1552 1552 1552 1552 1551 1550 1549 1545 1542 1541 1539 1537 1535 1532 1529 1527 1525 1523
1513 1531 1519 1521 1522 1523 1517 1518 1535 1548 1543 1532 1510 1519 1528 1526 1532 1536 1539 1543 1546 1548 1551 1552 1552 1551 1551 1550 1549 1549 1548 1548 1547 1543 1540 1539 1535 1533 1531 1529 1527 1524 1521 1519
1518 1525 1523 1525 1525 1523 1523 1531 1526 1537 1541 1547 1522 1519 1525 1529 1533 1535 1540 1542 1543 1546 1547 1549 1551 1549 1548 1548 1547 1545 1544 1545 1544 1542 1537 1533 1530 1528 1526 1525 1523 1520 1518 1515
1523 1529 1526 1525 1525 1525 1524 1526 1535 1535 1554 1556 1531 1524 1541 1532 1533 1535 1537 1539 1541 1543 1548 1549 1549 1548 1547 1546 1545 1544 1543 1539 1538 1536 1532 1529 1527 1525 1524 1523 1520 1517 1513 1510
1525 1526 1532 1526 1529 1529 1527 1527 1532 1534 1543 1554 1554 1539 1527 1529 1532 1536 1538 1539 1541 1542 1545 1547 1547 1546 1546 1545 1543 1542 1538 1536 1533 1530 1528 1527 1525 1522 1521 1519 1515 1510 1507 1505
1532 1534 1540 1531 1531 1531 1530 1532 1533 1550 1550 1550 1557 1551 1527 1531 1535 1539 1540 1543 1542 1543 1545 1546 1546 1545 1544 1543 1541 1538 1535 1532 1530 1527 1526 1525 1523 1520 1518 1514 1510 1507 1503 1501
1535 1536 1543 1537 1537 1533 1532 1531 1536 1544 1555 1557 1564 1550 1530 1534 1540 1540 1542 1542 1544 1545 1546 1546 1546 1544 1543 1541 1538 1536 1533 1529 1526 1524 1522 1521 1519 1515 1513 1511 1508 1504 1501 1498
1538 1532 1542 1548 1539 1533 1537 1533 1532 1535 1551 1551 1550 1539 1532 1533 1538 1539 1540 1542 1544 1545 1545 1546 1546 1543 1541 1539 1536 1534 1531 1527 1523 1520 1516 1515 1513 1509 1507 1506 1503 1501 1498 1495
1537 1544 1543 1541 1537 1535 1534 1533 1532 1533 1533 1545 1538 1535 1529 1534 1536 1542 1543 1544 1545 1544 1545 1545 1544 1542 1539 1537 1534 1531 1528 1525 1520 1514 1513 1508 1504 1500 1499 1498 1497 1497 1495 1492
1542 1550 1556 1550 1535 1536 1539 1534 1531 1529 1527 1528 1530 1532 1529 1538 1540 1542 1544 1545 1544 1545 1545 1544 1542 1539 1537 1535 1532 1529 1525 1521 1515 1510 1507 1504 1501 1495 1495 1493 1492 1492 1491 1488
1551 1554 1553 1552 1550 1550 1549 1539 1528 1526 1525 1530 1537 1532 1535 1540 1542 1542 1543 1544 1545 1546 1544 1542 1540 1537 1535 1532 1529 1526 1521 1517 1512 1506 1502 1497 1492 1492 1488 1490 1488 1488 1486 1483
1557 1558 1560 1560 1557 1554 1532 1529 1526 1529 1526 1528 1527 1533 1540 1543 1544 1543 1544 1546 1547 1545 1543 1541 1538 1535 1532 1530 1526 1522 1517 1512 1507 1502 1497 1490 1487 1485 1485 1482 1483 1485 1483 1479
1549 1552 1565 1563 1555 1545 1535 1531 1534 1537 1538 1533 1533 1538 1541 1543 1543 1545 1546 1546 1545 1543 1541 1538 1535 1532 1529 1526 1522 1518 1514 1510 1504 1498 1491 1489 1481 1486 1480 1477 1479 1481 1478 1474
1552 1554 1555 1566 1566 1557 1533 1531 1535 1536 1540 1539 1542 1544 1546 1544 1545 1545 1544 1544 1542 1540 1538 1535 1532 1529 1526 1523 1518 1515 1511 1506 1500 1493 1488 1484 1483 1482 1478 1475 1477 1477 1474 1470
1559 1558 1559 1559 1562 1550 1534 1533 1536 1544 1545 1542 1544 1544 1544 1545 1546 1544 1542 1541 1540 1538 1535 1532 1529 1525 1522 1518 1515 1511 1507 1502 1496 1490 1486 1482 1479 1478 1475 1475 1475 1472 1469 1466
1549 1554 1560 1557 1558 1552 1534 1534 1543 1540 1541 1541 1542 1542 1542 1542 1541 1540 1539 1538 1536 1534 1531 1529 1525 1521 1517 1514 1510 1506 1502 1497 1491 1487 1483 1480 1477 1475 1473 1472 1470 1468 1466 1461
1533 1532 1535 1539 1536 1529 1529 1531 1534 1535 1538 1539 1541 1540 1539 1539 1538 1537 1536 1534 1532 1530 1527 1524 1520 1516 1513 1509 1505 1500 1496 1490 1486 1483 1480 1477 1475 1473 1470 1468 1467 1465 1461 1457
1522 1522 1527 1529 1524 1525 1526 1529 1530 1533 1536 1537 1537 1537 1537 1536 1535 1535 1532 1530 1527 1525 1522 1519 1515 1512 1508 1505 1501 1496 1491 1486 1482 1479 1476 1474 1472 1469 1467 1466 1464 1461 1457 1455
1524 1522 1521 1520 1520 1521 1523 1526 1528 1530 1532 1533 1533 1533 1533 1533 1533 1531 1528 1526 1524 1521 1517 1514 1511 1507 1502 1499 1495 1490 1485 1481 1478 1475 1473 1471 1469 1467 1464 1463 1461 1458 1455 1452
1519 1518 1521 1519 1517 1519 1522 1525 1526 1527 1528 1529 1530 1531 1531 1531 1529 1527 1525 1523 1520 1516 1513 1510 1506 1502 1497 1493 1489 1484 1480 1477 1475 1472 1470 1468 1465 1464 1462 1460 1458 1455 1453 1450
Wind_Speed
6 8 7 12 8 7 10 7 7 14 7 3 9 8 10 7 5 6 6 8 8 19 18 16 11 5 4 0 1 8 7 10 6 5 7 8 7 6 7 6 11 14 15 18
5 6 8 6 7 6 6 5 6 6 5 5 8 10 11 6 11 14 11 12 19 18 17 14 11 8 9 9 11 9 4 9 6 7 5 5 7 7 8 6 10 12 17 23
13 10 5 4 5 8 3 6 9 8 7 8 10 6 14 11 11 13 18 21 19 16 15 14 13 13 12 12 11 9 8 10 10 8 3 2 4 5 11 19 30 25 28 35
8 4 3 1 5 8 3 6 5 8 7 7 13 3 13 14 12 14 16 16 14 12 13 14 14 12 11 11 10 8 7 5 3 1 12 16 17 15 22 32 30 28 19 18
5 4 5 4 6 6 6 5 6 8 9 10 10 6 13 16 14 13 13 11 10 11 12 11 11 11 10 8 7 6 4 3 8 14 13 12 10 19 21 17 16 16 11 15
7 3 7 6 4 2 6 9 9 8 9 3 11 2 6 2 12 12 10 8 7 8 7 7 8 8 8 6 5 4 5 6 14 11 9 19 20 17 13 13 12 13 18 24
8 6 5 8 10 5 8 8 4 2 2 3 5 2 10 11 12 13 9 11 8 5 6 4 7 6 3 5 7 9 11 13 12 17 17 11 11 11 11 13 15 20 25 18
7 6 5 7 7 7 5 6 3 3 4 2 4 3 8 14 13 12 10 5 4 5 3 4 3 3 4 6 9 13 13 14 15 15 12 12 11 11 13 16 21 20 17 20
5 7 6 7 6 8 7 5 3 1 2 1 5 17 14 11 8 11 5 1 2 2 4 1 6 3 4 9 12 13 17 15 15 12 11 11 11 11 18 22 17 17 16 15
4 3 5 3 3 4 5 1 2 3 2 3 8 5 7 4 6 5 7 8 8 2 4 7 12 13 14 15 16 15 13 13 13 14 13 16 21 19 16 16 17 15 19 24
7 4 3 5 8 8 0 2 2 3 1 2 3 2 4 7 5 5 7 8 8 8 7 7 14 17 18 21 18 18 18 12 15 17 20 24 16 15 15 16 17 19 24 30
4 3 2 8 5 3 3 5 3 1 1 2 1 6 7 8 13 7 9 8 11 12 14 17 17 17 21 23 19 13 17 19 24 24 14 17 17 17 16 18 22 24 20 18
5 2 2 7 5 3 3 3 1 6 2 3 2 3 5 19 14 15 11 11 14 12 12 13 15 19 22 22 23 28 22 17 22 21 16 16 19 17 16 18 19 17 20 21
4 1 2 2 5 7 7 8 8 8 3 5 6 14 14 4 6 6 10 13 14 16 14 15 18 20 21 24 21 19 22 25 27 26 16 14 21 17 16 16 18 19 21 22
3 3 6 8 9 9 10 11 11 12 10 8 10 13 9 10 10 19 17 16 14 12 16 18 20 22 21 20 21 23 24 27 28 25 22 27 23 19 13 15 16 19 21 21
6 2 3 3 4 9 12 14 14 15 14 9 12 13 7 18 15 16 14 15 15 16 17 19 21 19 19 22 24 27 29 31 22 21 27 26 25 21 14 14 15 17 21 20
3 2 1 2 9 9 2 4 5 4 6 9 5 8 15 10 12 16 11 11 15 16 19 20 18 19 21 23 26 29 32 33 33 30 27 23 23 20 14 14 15 17 21 24
5 2 2 2 5 3 3 12 12 9 7 7 7 8 8 12 16 17 8 11 15 15 16 17 19 22 21 27 27 30 31 34 36 35 31 25 25 16 12 13 17 17 22 24
5 2 3 1 3 9 11 4 6 5 10 10 7 8 12 17 14 6 12 13 13 15 17 20 22 23 27 26 28 32 34 34 35 37 26 26 16 14 16 11 18 18 25 24
5 5 1 2 2 3 2 7 6 9 8 8 10 11 11 16 6 8 20 19 18 19 20 23 24 26 26 27 31 31 32 33 35 31 33 20 12 15 14 14 15 20 21 21
2 1 3 4 4 6 9 5 4 3 2 5 5 10 10 7 7 14 17 15 18 20 22 26 26 26 24 28 29 29 31 33 27 24 19 16 15 15 14 14 18 20 21 24
7 7 4 3 3 6 2 2 1 5 10 2 3 5 8 11 11 15 14 17 19 22 25 26 28 26 28 29 28 27 28 30 25 27 22 21 18 15 15 16 17 21 22 18
4 6 4 9 5 10 3 7 10 10 7 3 8 7 9 10 13 14 16 18 21 24 26 28 27 29 31 27 26 27 27 26 24 23 23 19 16 15 15 19 22 19 16 19
3 9 3 2 7 12 10 3 6 6 2 5 6 8 10 11 12 15 18 22 24 25 28 26 30 31 27 28 29 26 25 24 23 21 18 18 16 17 19 14 17 17 18 24
6 6 6 9 15 15 3 5 7 1 7 9 7 9 8 11 14 18 22 24 26 27 25 30 29 29 29 31 29 25 27 29 18 16 14 14 15 13 16 15 16 16 19 23
10 10 7 8 8 3 3 4 4 7 6 6 5 6 9 12 17 20 22 25 26 28 30 29 29 31 31 29 28 29 22 19 20 18 15 15 14 13 16 12 15 17 20 20
Wind_Direction
216 268 58 24 26 351 328 8 332 100 99 314 266 283 73 348 125 84 65 41 55 69 89 100 96 111 179 216 304 256 178 153 161 190 195 225 226 257 297 298 310 329 323 303
235 76 46 3 17 334 316 339 291 64 70 275 241 226 105 79 46 66 94 82 79 77 71 69 70 88 102 115 104 146 149 145 166 212 215 276 313 344 348 328 322 333 323 320
50 71 51 7 47 336 155 346 18 339 326 270 281 197 132 116 103 85 66 73 85 82 83 83 80 81 95 94 91 114 146 180 182 96 126 41 326 296 295 302 310 299 297 310
64 66 16 333 83 347 346 37 317 283 275 271 185 273 139 149 122 97 82 75 81 87 91 96 94 87 95 112 118 110 81 49 105 344 320 317 321 312 310 305 297 306 311 309
107 86 3 48 16 331 45 334 296 286 271 276 263 237 139 155 150 117 91 91 82 54 65 80 92 94 84 82 93 69 13 331 314 322 322 335 300 297 309 330 335 329 305 289
83 80 44 5 300 305 299 258 235 257 250 269 259 332 57 129 95 103 104 90 68 86 98 98 108 100 85 67 42 13 347 304 318 337 321 304 321 334 330 326 315 292 291 302
141 69 106 353 289 205 335 326 260 236 166 237 37 297 92 110 66 102 98 90 77 42 42 90 95 71 52 10 354 336 325 322 307 297 303 329 328 319 315 310 301 302 320 320
200 139 7 19 22 348 345 316 37 329 352 0 188 282 106 105 106 98 95 81 136 116 105 59 14 332 334 324 311 310 312 313 310 301 304 309 304 308 313 306 307 322 314 313
335 91 111 51 356 347 3 40 353 176 348 296 262 101 101 120 123 107 95 59 125 157 168 214 303 248 351 328 326 315 311 308 314 304 295 286 280 297 312 308 316 318 321 309
44 126 29 47 250 73 45 6 327 19 330 323 349 25 114 182 112 85 59 14 11 51 335 350 340 335 341 344 346 331 315 286 295 293 286 287 289 312 302 312 320 305 297 299
356 332 92 235 24 14 93 62 31 324 16 292 333 51 44 87 72 18 357 345 22 28 31 332 9 11 0 350 338 319 308 292 274 290 301 310 305 305 312 315 294 296 302 311
35 78 308 68 74 12 4 19 7 349 29 105 19 278 69 60 29 23 7 3 16 34 19 4 355 337 338 340 329 322 299 309 305 311 313 309 312 312 308 300 302 308 317 316
351 50 255 153 154 140 308 56 58 95 100 251 182 262 255 21 302 27 16 51 44 24 0 354 355 349 337 329 319 316 320 314 310 305 304 308 306 307 310 312 315 323 323 320
309 91 97 353 323 336 303 276 260 254 189 264 276 289 313 252 91 360 11 47 18 3 10 355 342 333 329 324 324 321 321 314 312 307 286 300 301 301 302 309 308 312 313 314
20 42 6 321 314 304 299 291 285 272 255 242 261 266 318 16 15 46 26 7 354 358 352 342 333 330 327 326 324 321 321 320 306 305 289 304 288 281 288 284 304 312 314 314
43 93 354 264 347 348 307 293 291 282 272 290 315 305 57 49 29 19 6 350 2 353 342 334 331 331 330 330 330 326 322 320 309 301 293 298 289 287 282 300 312 312 314 315
54 140 5 287 346 314 319 262 275 329 310 316 298 289 39 34 8 350 352 359 349 337 330 330 327 331 334 332 328 327 327 320 319 308 302 299 284 293 288 302 310 308 312 314
119 71 67 301 311 10 40 319 292 316 281 284 318 44 56 16 352 347 45 10 340 332 329 323 330 329 330 326 327 329 327 324 318 317 311 300 296 302 289 298 298 314 311 314
123 151 86 336 305 296 302 56 30 7 308 320 33 32 5 347 340 4 36 354 340 328 321 328 329 334 329 332 333 331 327 324 322 319 308 312 322 293 291 297 296 308 312 317
61 81 292 126 241 255 333 39 35 321 277 57 29 10 349 339 339 336 341 336 330 327 325 327 332 328 331 331 332 330 329 328 329 323 319 295 313 305 314 310 313 309 316 318
92 157 212 202 245 278 270 325 342 239 35 14 12 349 342 332 324 309 318 323 319 319 325 327 327 332 331 332 329 328 327 328 329 337 322 301 313 300 322 315 305 311 318 319
169 168 197 197 234 255 339 332 202 8 338 63 337 314 305 308 300 314 321 318 317 323 325 325 329 329 330 326 323 324 324 324 321 324 318 317 318 319 313 307 302 315 320 311
212 192 186 184 212 226 5 222 262 275 258 247 292 302 302 297 304 320 316 314 320 323 321 326 326 326 321 320 324 323 324 322 322 321 320 312 311 314 300 301 315 317 306 305
276 272 186 202 255 276 297 305 135 169 192 299 269 282 283 300 320 308 312 321 326 325 324 324 327 319 322 327 327 322 320 310 309 314 310 314 311 307 314 319 317 310 306 313
230 283 279 286 293 297 34 114 145 292 298 272 275 268 305 312 306 319 328 326 326 322 323 326 320 321 322 322 320 317 313 314 313 305 304 315 314 304 309 313 312 319 322 320
240 259 253 263 279 269 144 156 279 279 279 271 261 309 307 310 323 324 330 330 329 326 325 322 319 319 318 316 313 317 308 314 302 304 314 306 313 313 316 312 300 305 310 316